| time (UTC) | temp C | wind direction | speed KPH | gust KPH | rain 1hr cm | rain 24hr cm | rain mn cm | humidity % | barometer mb |
| 20260510085543 | 17 | 142 | 1.6 | 8.0 | 0.00 | 0.00 | 0.00 | 87 | 1029.0 |
| 20260510085037 | 18 | 143 | 1.6 | 9.7 | 0.00 | 0.00 | 0.00 | 87 | 1029.0 |
| 20260510084540 | 18 | 121 | 1.6 | 9.7 | 0.00 | 0.00 | 0.00 | 86 | 1028.9 |
| 20260510084037 | 18 | 121 | 3.2 | 9.7 | 0.00 | 0.00 | 0.00 | 86 | 1028.8 |
| 20260510083536 | 18 | 113 | 0.0 | 9.7 | 0.00 | 0.00 | 0.00 | 1028.8 | |
| 20260510083035 | -17 | 0.0 | 0.0 | 0.00 | 0.00 | 0.00 | 1028.8 | ||
| 20260510082532 | -17 | 0.0 | 0.0 | 0.00 | 0.00 | 0.00 | 1028.7 | ||
| 20260510082031 | -17 | 0.0 | 0.0 | 0.00 | 0.00 | 0.00 | 1028.7 | ||
| 20260510081530 | -17 | 0.0 | 0.0 | 0.00 | 0.00 | 0.00 | 1028.6 | ||
| 20260510081030 | -17 | 0.0 | 0.0 | 0.00 | 0.00 | 0.00 | 1028.5 | ||
| 20260510080527 | -17 | 0.0 | 0.0 | 0.00 | 0.00 | 0.00 | 1028.5 | ||
| 20260510080033 | -17 | 0.0 | 0.0 | 0.00 | 0.00 | 0.00 | 1028.4 | ||
| 20260510075524 | -17 | 0.0 | 0.0 | 0.00 | 0.00 | 0.00 | 1028.4 | ||
| 20260510075023 | -17 | 0.0 | 0.0 | 0.00 | 0.00 | 0.00 | 1028.4 | ||
| 20260510074522 | -17 | 0.0 | 0.0 | 0.00 | 0.00 | 0.00 | 1028.3 | ||
| 20260510074020 | -17 | 0.0 | 0.0 | 0.00 | 0.00 | 0.00 | 1028.3 | ||
| 20260510073518 | -17 | 0.0 | 0.0 | 0.00 | 0.00 | 0.00 | 1028.3 | ||
| 20260510073022 | -17 | 0.0 | 0.0 | 0.00 | 0.00 | 0.00 | 1028.3 | ||
| 20260510072516 | -17 | 0.0 | 0.0 | 0.00 | 0.00 | 0.00 | 1028.2 | ||
| 20260510072017 | -17 | 0.0 | 0.0 | 0.00 | 0.00 | 0.00 | 1028.2 | ||
| 20260510071513 | -17 | 0.0 | 0.0 | 0.00 | 0.00 | 0.00 | 1028.2 | ||
| 20260510071011 | -17 | 0.0 | 0.0 | 0.00 | 0.00 | 0.00 | 1028.2 | ||
| 20260510070610 | -17 | 0.0 | 0.0 | 0.00 | 0.00 | 0.00 | 1028.0 | ||
| 20260510070009 | -17 | 0.0 | 0.0 | 0.00 | 0.00 | 0.00 | 1027.9 | ||
| 20260510065507 | -17 | 0.0 | 0.0 | 0.00 | 0.00 | 0.00 | 1027.9 | ||
| 20260510065009 | -17 | 0.0 | 0.0 | 0.00 | 0.00 | 0.00 | 1027.9 | ||
| 20260510064515 | -17 | 0.0 | 0.0 | 0.00 | 0.00 | 0.00 | 1027.8 | ||
| 20260510064002 | -17 | 0.0 | 0.0 | 0.00 | 0.00 | 0.00 | 1027.8 | ||
| 20260510063502 | 19 | 108 | 4.8 | 12.9 | 0.00 | 0.00 | 0.00 | 78 | 1027.7 |
| 20260510063002 | 19 | 108 | 4.8 | 12.9 | 0.00 | 0.00 | 0.00 | 78 | 1027.7 |
| 20260510062501 | 19 | 64 | 3.2 | 12.9 | 0.00 | 0.00 | 0.00 | 78 | 1027.6 |
| 20260510062001 | 19 | 142 | 4.8 | 16.1 | 0.00 | 0.00 | 0.00 | 77 | 1027.6 |
| 20260510061502 | 20 | 160 | 6.4 | 16.1 | 0.00 | 0.00 | 0.00 | 76 | 1027.6 |
| 20260510061002 | 20 | 144 | 4.8 | 14.5 | 0.00 | 0.00 | 0.00 | 75 | 1027.5 |
| 20260510060503 | 20 | 109 | 3.2 | 12.9 | 0.00 | 0.00 | 0.00 | 75 | 1027.4 |
| 20260510060003 | 20 | 128 | 3.2 | 11.3 | 0.00 | 0.00 | 0.00 | 75 | 1027.4 |
| 20260510055500 | 20 | 131 | 1.6 | 12.9 | 0.00 | 0.00 | 0.00 | 76 | 1027.3 |
| 20260510055100 | 20 | 145 | 3.2 | 9.7 | 0.00 | 0.00 | 0.00 | 76 | 1027.3 |
| 20260510054605 | 20 | 88 | 3.2 | 9.7 | 0.00 | 0.00 | 0.00 | 75 | 1027.2 |
| 20260510054100 | 20 | 104 | 3.2 | 17.7 | 0.00 | 0.00 | 0.00 | 75 | 1027.2 |
| 20260510053559 | 20 | 101 | 4.8 | 17.7 | 0.00 | 0.00 | 0.00 | 73 | 1027.1 |
| 20260510053059 | 20 | 100 | 4.8 | 16.1 | 0.00 | 0.00 | 0.00 | 73 | 1027.1 |
| 20260510052559 | 20 | 136 | 4.8 | 16.1 | 0.00 | 0.00 | 0.00 | 72 | 1027.1 |
| 20260510052102 | 20 | 89 | 3.2 | 16.1 | 0.00 | 0.00 | 0.00 | 71 | 1027.0 |
| 20260510051604 | 20 | 96 | 3.2 | 12.9 | 0.00 | 0.00 | 0.00 | 70 | 1027.0 |
| 20260510051101 | 20 | 109 | 3.2 | 12.9 | 0.00 | 0.00 | 0.00 | 69 | 1026.9 |
| 20260510050557 | 20 | 148 | 4.8 | 12.9 | 0.00 | 0.00 | 0.00 | 69 | 1026.8 |
| 20260510045601 | 20 | 91 | 4.8 | 17.7 | 0.00 | 0.00 | 0.00 | 68 | 1026.8 |
| 20260510045057 | 20 | 90 | 4.8 | 16.1 | 0.00 | 0.00 | 0.00 | 68 | 1026.8 |
| 20260510044557 | 20 | 143 | 4.8 | 16.1 | 0.00 | 0.00 | 0.00 | 68 | 1026.7 |
| 20260510044056 | 20 | 92 | 4.8 | 16.1 | 0.00 | 0.00 | 0.00 | 69 | 1026.7 |
| 20260510043556 | 20 | 108 | 4.8 | 14.5 | 0.00 | 0.00 | 0.00 | 68 | 1026.8 |
| 20260510043056 | 20 | 100 | 4.8 | 14.5 | 0.00 | 0.00 | 0.00 | 67 | 1026.7 |
| 20260510042559 | 21 | 109 | 3.2 | 9.7 | 0.00 | 0.00 | 0.00 | 67 | 1026.7 |
| 20260510042055 | 21 | 138 | 3.2 | 14.5 | 0.00 | 0.00 | 0.00 | 68 | 1026.6 |
| 20260510041554 | 21 | 95 | 4.8 | 14.5 | 0.00 | 0.00 | 0.00 | 67 | 1026.6 |
| 20260510041054 | 20 | 50 | 3.2 | 12.9 | 0.00 | 0.00 | 0.00 | 69 | 1026.7 |
| 20260510040554 | 20 | 129 | 3.2 | 9.7 | 0.00 | 0.00 | 0.00 | 70 | 1026.6 |
| 20260510040054 | 20 | 98 | 3.2 | 14.5 | 0.00 | 0.00 | 0.00 | 70 | 1026.6 |
| 20260510035553 | 20 | 69 | 4.8 | 14.5 | 0.00 | 0.00 | 0.00 | 69 | 1026.6 |
| 20260510035053 | 20 | 100 | 4.8 | 14.5 | 0.00 | 0.00 | 0.00 | 69 | 1026.6 |
| 20260510034614 | 20 | 95 | 4.8 | 14.5 | 0.00 | 0.00 | 0.00 | 69 | 1026.6 |
| 20260510034053 | 20 | 121 | 4.8 | 12.9 | 0.00 | 0.00 | 0.00 | 68 | 1026.6 |
| 20260510033553 | 20 | 88 | 3.2 | 12.9 | 0.00 | 0.00 | 0.00 | 67 | 1026.7 |
| 20260510033058 | 20 | 80 | 3.2 | 9.7 | 0.00 | 0.00 | 0.00 | 67 | 1026.7 |
| 20260510032552 | 20 | 95 | 3.2 | 8.0 | 0.00 | 0.00 | 0.00 | 67 | 1026.8 |
| 20260510032053 | 20 | 205 | 3.2 | 12.9 | 0.00 | 0.00 | 0.00 | 68 | 1026.8 |
| 20260510031553 | 20 | 75 | 3.2 | 12.9 | 0.00 | 0.00 | 0.00 | 67 | 1026.8 |
| 20260510031053 | 20 | 76 | 3.2 | 9.7 | 0.00 | 0.00 | 0.00 | 67 | 1026.9 |
| 20260510030551 | -17 | 0.0 | 0.0 | 0.00 | 0.00 | 0.00 | 1026.9 | ||
| 20260510030053 | -17 | 0.0 | 0.0 | 0.00 | 0.00 | 0.00 | 1026.9 | ||
| 20260510025549 | -17 | 0.0 | 0.0 | 0.00 | 0.00 | 0.00 | 1027.0 | ||
| 20260510025048 | 20 | 100 | 3.2 | 12.9 | 0.00 | 0.00 | 0.00 | 65 | 1027.0 |
| 20260510024548 | 20 | 100 | 3.2 | 12.9 | 0.00 | 0.00 | 0.00 | 65 | 1027.0 |
| 20260510024046 | 20 | 86 | 4.8 | 12.9 | 0.00 | 0.00 | 0.00 | 65 | 1027.0 |
| 20260510023547 | 21 | 92 | 3.2 | 11.3 | 0.00 | 0.00 | 0.00 | 66 | 1027.0 |
| 20260510023047 | 21 | 96 | 3.2 | 11.3 | 0.00 | 0.00 | 0.00 | 66 | 1027.1 |
| 20260510022547 | 21 | 127 | 3.2 | 11.3 | 0.00 | 0.00 | 0.00 | 65 | 1027.1 |
| 20260510022046 | 20 | 149 | 1.6 | 9.7 | 0.00 | 0.00 | 0.00 | 66 | 1027.2 |
| 20260510021557 | 21 | 112 | 4.8 | 9.7 | 0.00 | 0.00 | 0.00 | 65 | 1027.2 |
| 20260510021046 | 21 | 90 | 3.2 | 11.3 | 0.00 | 0.00 | 0.00 | 65 | 1027.2 |
| 20260510020544 | 21 | 106 | 3.2 | 8.0 | 0.00 | 0.00 | 0.00 | 65 | 1027.3 |
| 20260510020044 | 21 | 136 | 3.2 | 9.7 | 0.00 | 0.00 | 0.00 | 65 | 1027.4 |
| 20260510015542 | 20 | 96 | 3.2 | 11.3 | 0.00 | 0.00 | 0.00 | 65 | 1027.5 |
| 20260510015042 | 21 | 188 | 3.2 | 9.7 | 0.00 | 0.00 | 0.00 | 64 | 1027.5 |
| 20260510014546 | 21 | 136 | 1.6 | 9.7 | 0.00 | 0.00 | 0.00 | 65 | 1027.6 |
| 20260510014042 | 20 | 132 | 3.2 | 9.7 | 0.00 | 0.00 | 0.00 | 64 | 1027.6 |
| 20260510013541 | 21 | 93 | 1.6 | 9.7 | 0.00 | 0.00 | 0.00 | 63 | 1027.7 |
| 20260510013039 | 20 | 146 | 1.6 | 12.9 | 0.00 | 0.00 | 0.00 | 62 | 1027.7 |
| 20260510012539 | 21 | 190 | 4.8 | 12.9 | 0.00 | 0.00 | 0.00 | 61 | 1027.7 |
| 20260510012039 | 21 | 117 | 3.2 | 6.4 | 0.00 | 0.00 | 0.00 | 62 | 1027.9 |
| 20260510011538 | 20 | 123 | 1.6 | 6.4 | 0.00 | 0.00 | 0.00 | 64 | 1027.9 |
| 20260510011036 | 20 | 189 | 1.6 | 4.8 | 0.00 | 0.00 | 0.00 | 64 | 1027.9 |
| 20260510010535 | 20 | 207 | 1.6 | 9.7 | 0.00 | 0.00 | 0.00 | 64 | 1028.0 |
| 20260510010039 | 20 | 107 | 3.2 | 9.7 | 0.00 | 0.00 | 0.00 | 63 | 1028.1 |
| 20260510005535 | 20 | 88 | 1.6 | 6.4 | 0.00 | 0.00 | 0.00 | 62 | 1028.1 |
| 20260510005033 | 20 | 93 | 1.6 | 6.4 | 0.00 | 0.00 | 0.00 | 64 | 1028.2 |
| 20260510004533 | 20 | 45 | 1.6 | 6.4 | 0.00 | 0.00 | 0.00 | 64 | 1028.3 |
| 20260510004031 | 20 | 119 | 1.6 | 6.4 | 0.00 | 0.00 | 0.00 | 65 | 1028.2 |
| 20260510003530 | 19 | 163 | 0.0 | 11.3 | 0.00 | 0.00 | 0.00 | 67 | 1028.3 |
| 20260510003030 | 19 | 182 | 1.6 | 11.3 | 0.00 | 0.00 | 0.00 | 67 | 1028.3 |
| 20260510002528 | 19 | 126 | 3.2 | 11.3 | 0.00 | 0.00 | 0.00 | 67 | 1028.3 |
| 20260510002027 | 18 | 177 | 4.8 | 8.0 | 0.00 | 0.00 | 0.00 | 68 | 1028.3 |
| 20260510001525 | 18 | 171 | 0.0 | 8.0 | 0.00 | 0.00 | 0.00 | 70 | 1028.3 |
| 20260510001024 | 18 | 140 | 1.6 | 8.0 | 0.00 | 0.00 | 0.00 | 71 | 1028.2 |
| 20260510000523 | 18 | 171 | 1.6 | 8.0 | 0.00 | 0.00 | 0.00 | 72 | 1028.2 |
| 20260510000022 | 18 | 204 | 1.6 | 6.4 | 0.00 | 0.00 | 0.00 | 73 | 1028.2 |
| 20260509235520 | 17 | 227 | 0.0 | 6.4 | 0.00 | 0.00 | 0.00 | 74 | 1028.1 |
| 20260509235019 | 17 | 247 | 1.6 | 6.4 | 0.00 | 0.00 | 0.00 | 75 | 1028.1 |
| 20260509234518 | 17 | 234 | 1.6 | 6.4 | 0.00 | 0.00 | 0.00 | 75 | 1028.1 |
| 20260509234017 | 17 | 258 | 3.2 | 6.4 | 0.00 | 0.00 | 0.00 | 75 | 1028.0 |
| 20260509233515 | 17 | 171 | 1.6 | 6.4 | 0.00 | 0.00 | 0.00 | 75 | 1028.0 |
| 20260509233019 | 17 | 231 | 3.2 | 6.4 | 0.00 | 0.00 | 0.00 | 76 | 1027.9 |
| 20260509232514 | 17 | 209 | 3.2 | 6.4 | 0.00 | 0.00 | 0.00 | 77 | 1027.9 |
| 20260509232011 | 17 | 212 | 1.6 | 6.4 | 0.00 | 0.00 | 0.00 | 78 | 1027.9 |
| 20260509231512 | 17 | 205 | 3.2 | 6.4 | 0.00 | 0.00 | 0.00 | 77 | 1027.9 |
| 20260509231010 | 17 | 211 | 3.2 | 6.4 | 0.00 | 0.00 | 0.00 | 78 | 1027.9 |
| 20260509230510 | 16 | 215 | 0.0 | 4.8 | 0.00 | 0.00 | 0.00 | 78 | 1027.9 |
| 20260509230009 | 16 | 186 | 1.6 | 4.8 | 0.00 | 0.00 | 0.00 | 78 | 1027.9 |
| 20260509225507 | 16 | 220 | 1.6 | 4.8 | 0.00 | 0.00 | 0.00 | 78 | 1027.8 |
| 20260509225006 | 16 | 179 | 0.0 | 4.8 | 0.00 | 0.00 | 0.00 | 79 | 1027.7 |
| 20260509224504 | 16 | 266 | 0.0 | 1.6 | 0.00 | 0.00 | 0.00 | 80 | 1027.8 |
| 20260509224004 | 16 | 266 | 0.0 | 1.6 | 0.00 | 0.00 | 0.00 | 81 | 1027.7 |
| 20260509223503 | 15 | 267 | 0.0 | 1.6 | 0.00 | 0.00 | 0.00 | 80 | 1027.7 |
| 20260509223002 | 15 | 267 | 0.0 | 3.2 | 0.00 | 0.00 | 0.00 | 81 | 1027.8 |
| 20260509222500 | 15 | 272 | 0.0 | 4.8 | 0.00 | 0.00 | 0.00 | 82 | 1027.7 |
| 20260509222059 | 15 | 272 | 1.6 | 4.8 | 0.00 | 0.00 | 0.00 | 82 | 1027.7 |
| 20260509221621 | 15 | 283 | 0.0 | 4.8 | 0.00 | 0.00 | 0.00 | 83 | 1027.7 |
| 20260509221057 | 14 | 292 | 1.6 | 4.8 | 0.00 | 0.00 | 0.00 | 84 | 1027.6 |
| 20260509220557 | 14 | 292 | 1.6 | 4.8 | 0.00 | 0.00 | 0.00 | 84 | 1027.7 |
| 20260509220055 | 14 | 292 | 1.6 | 4.8 | 0.00 | 0.00 | 0.00 | 84 | 1027.6 |
| 20260509215555 | 14 | 294 | 1.6 | 4.8 | 0.00 | 0.00 | 0.00 | 84 | 1027.6 |
| 20260509215055 | 14 | 294 | 1.6 | 4.8 | 0.00 | 0.00 | 0.00 | 84 | 1027.5 |
| 20260509214601 | 14 | 289 | 1.6 | 4.8 | 0.00 | 0.00 | 0.00 | 84 | 1027.4 |
| 20260509214051 | 13 | 289 | 1.6 | 3.2 | 0.00 | 0.00 | 0.00 | 85 | 1027.4 |
| 20260509213551 | 13 | 289 | 1.6 | 3.2 | 0.00 | 0.00 | 0.00 | 85 | 1027.3 |
| 20260509213050 | 13 | 289 | 1.6 | 3.2 | 0.00 | 0.00 | 0.00 | 85 | 1027.3 |
| 20260509212549 | 13 | 289 | 1.6 | 3.2 | 0.00 | 0.00 | 0.00 | 85 | 1027.3 |
| 20260509212049 | 13 | 289 | 0.0 | 4.8 | 0.00 | 0.00 | 0.00 | 86 | 1027.1 |
| 20260509211550 | 13 | 289 | 1.6 | 4.8 | 0.00 | 0.00 | 0.00 | 86 | 1027.1 |
| 20260509211048 | 13 | 289 | 1.6 | 4.8 | 0.00 | 0.00 | 0.00 | 86 | 1027.0 |
| 20260509210548 | 13 | 289 | 1.6 | 4.8 | 0.00 | 0.00 | 0.00 | 86 | 1027.0 |
| 20260509210049 | 13 | 286 | 1.6 | 4.8 | 0.00 | 0.00 | 0.00 | 86 | 1027.0 |
| 20260509205548 | 13 | 286 | 1.6 | 4.8 | 0.00 | 0.00 | 0.00 | 86 | 1026.9 |
| 20260509205046 | 13 | 285 | 1.6 | 4.8 | 0.00 | 0.00 | 0.00 | 86 | 1026.9 |
| 20260509204545 | 13 | 285 | 1.6 | 4.8 | 0.00 | 0.00 | 0.00 | 87 | 1026.8 |
| 20260509204045 | 13 | 285 | 3.2 | 4.8 | 0.00 | 0.00 | 0.00 | 87 | 1026.8 |
| 20260509203543 | 13 | 285 | 1.6 | 4.8 | 0.00 | 0.00 | 0.00 | 88 | 1026.7 |
| 20260509203044 | 13 | 285 | 0.0 | 3.2 | 0.00 | 0.00 | 0.00 | 88 | 1026.6 |
| 20260509202542 | 12 | 285 | 0.0 | 3.2 | 0.00 | 0.00 | 0.00 | 88 | 1026.6 |
| 20260509202042 | 12 | 285 | 0.0 | 3.2 | 0.00 | 0.00 | 0.00 | 89 | 1026.5 |
| 20260509201543 | 12 | 285 | 1.6 | 3.2 | 0.00 | 0.00 | 0.00 | 89 | 1026.5 |
| 20260509201041 | 12 | 285 | 0.0 | 3.2 | 0.00 | 0.00 | 0.00 | 89 | 1026.4 |
| 20260509200541 | 12 | 285 | 0.0 | 3.2 | 0.00 | 0.00 | 0.00 | 89 | 1026.4 |
| 20260509200047 | 12 | 285 | 0.0 | 4.8 | 0.00 | 0.00 | 0.00 | 89 | 1026.3 |
| 20260509195540 | 12 | 285 | 1.6 | 4.8 | 0.00 | 0.00 | 0.00 | 90 | 1026.3 |
| 20260509195038 | 12 | 296 | 0.0 | 3.2 | 0.00 | 0.00 | 0.00 | 90 | 1026.2 |
| 20260509194548 | 12 | 296 | 0.0 | 3.2 | 0.00 | 0.00 | 0.00 | 90 | 1026.2 |
| 20260509194040 | 12 | 296 | 0.0 | 0.0 | 0.00 | 0.00 | 0.00 | 89 | 1026.1 |
| 20260509193537 | 12 | 296 | 0.0 | 3.2 | 0.00 | 0.00 | 0.00 | 89 | 1026.1 |
| 20260509193039 | 12 | 296 | 0.0 | 4.8 | 0.00 | 0.00 | 0.00 | 89 | 1026.0 |
| 20260509192539 | 13 | 296 | 1.6 | 4.8 | 0.00 | 0.00 | 0.00 | 88 | 1025.9 |
| 20260509192036 | 13 | 296 | 1.6 | 4.8 | 0.00 | 0.00 | 0.00 | 88 | 1025.9 |
| 20260509191537 | 13 | 296 | 0.0 | 4.8 | 0.00 | 0.00 | 0.00 | 88 | 1025.8 |
| 20260509191036 | 13 | 168 | 1.6 | 6.4 | 0.00 | 0.00 | 0.00 | 88 | 1025.7 |
| 20260509190536 | 13 | 132 | 3.2 | 6.4 | 0.00 | 0.00 | 0.00 | 89 | 1025.7 |
| 20260509190134 | 13 | 130 | 0.0 | 3.2 | 0.00 | 0.00 | 0.00 | 89 | 1025.7 |
| 20260509185535 | 13 | 139 | 0.0 | 4.8 | 0.00 | 0.00 | 0.00 | 89 | 1025.7 |
| 20260509185033 | 13 | 102 | 1.6 | 4.8 | 0.00 | 0.00 | 0.00 | 89 | 1025.6 |
| 20260509184536 | 13 | 136 | 0.0 | 4.8 | 0.00 | 0.00 | 0.00 | 89 | 1025.6 |
| 20260509184033 | 13 | 134 | 1.6 | 4.8 | 0.00 | 0.00 | 0.00 | 89 | 1025.6 |
| 20260509183531 | 13 | 156 | 0.0 | 3.2 | 0.00 | 0.00 | 0.00 | 89 | 1025.5 |
| 20260509183043 | 13 | 198 | 0.0 | 3.2 | 0.00 | 0.00 | 0.00 | 89 | 1025.5 |
| 20260509182531 | 13 | 198 | 0.0 | 3.2 | 0.00 | 0.00 | 0.00 | 89 | 1025.4 |
| 20260509182030 | 13 | 198 | 0.0 | 3.2 | 0.00 | 0.00 | 0.00 | 89 | 1025.4 |
| 20260509181530 | 13 | 198 | 0.0 | 3.2 | 0.00 | 0.00 | 0.00 | 89 | 1025.3 |
| 20260509181029 | 13 | 198 | 0.0 | 3.2 | 0.00 | 0.00 | 0.00 | 89 | 1025.3 |
| 20260509180529 | 13 | 202 | 0.0 | 4.8 | 0.00 | 0.00 | 0.00 | 89 | 1025.3 |
| 20260509180028 | 13 | 200 | 0.0 | 4.8 | 0.00 | 0.00 | 0.00 | 89 | 1025.3 |
| 20260509175528 | 13 | 151 | 0.0 | 4.8 | 0.00 | 0.00 | 0.00 | 89 | 1025.2 |
| 20260509175027 | 13 | 232 | 0.0 | 4.8 | 0.00 | 0.00 | 0.00 | 89 | 1025.2 |
| 20260509174541 | 13 | 307 | 0.0 | 4.8 | 0.00 | 0.00 | 0.00 | 89 | 1025.1 |
| 20260509174027 | 13 | 175 | 0.0 | 4.8 | 0.00 | 0.00 | 0.00 | 89 | 1025.1 |
| 20260509173526 | 13 | 144 | 1.6 | 4.8 | 0.00 | 0.00 | 0.00 | 89 | 1025.1 |
| 20260509173026 | 13 | 209 | 0.0 | 6.4 | 0.00 | 0.00 | 0.00 | 90 | 1025.1 |
| 20260509172526 | 13 | 186 | 0.0 | 6.4 | 0.00 | 0.00 | 0.00 | 90 | 1025.0 |
| 20260509172025 | 13 | 205 | 0.0 | 4.8 | 0.00 | 0.00 | 0.00 | 90 | 1025.0 |
| 20260509171537 | 13 | 205 | 0.0 | 4.8 | 0.00 | 0.00 | 0.00 | 90 | 1025.1 |
| 20260509171026 | 13 | 182 | 0.0 | 4.8 | 0.00 | 0.00 | 0.00 | 89 | 1025.1 |
| 20260509170526 | 13 | 225 | 0.0 | 1.6 | 0.00 | 0.00 | 0.00 | 89 | 1025.0 |
| 20260509170030 | 13 | 225 | 0.0 | 3.2 | 0.00 | 0.00 | 0.00 | 89 | 1025.1 |
| 20260509165526 | 13 | 225 | 0.0 | 3.2 | 0.00 | 0.00 | 0.00 | 89 | 1025.0 |
| 20260509165024 | 13 | 225 | 0.0 | 1.6 | 0.00 | 0.00 | 0.00 | 88 | 1025.0 |
| 20260509164524 | 13 | 225 | 0.0 | 1.6 | 0.00 | 0.00 | 0.00 | 88 | 1025.0 |
| 20260509164023 | 13 | 225 | 0.0 | 1.6 | 0.00 | 0.00 | 0.00 | 88 | 1025.0 |
| 20260509163528 | 13 | 225 | 0.0 | 1.6 | 0.00 | 0.00 | 0.00 | 88 | 1025.0 |
| 20260509163035 | 13 | 225 | 0.0 | 0.0 | 0.00 | 0.00 | 0.00 | 87 | 1025.0 |
| 20260509162527 | 13 | 225 | 0.0 | 0.0 | 0.00 | 0.00 | 0.00 | 88 | 1025.1 |
| 20260509162024 | 13 | 225 | 0.0 | 0.0 | 0.00 | 0.00 | 0.00 | 88 | 1025.1 |
| 20260509161529 | 13 | 225 | 0.0 | 0.0 | 0.00 | 0.00 | 0.00 | 88 | 1025.1 |
| 20260509161024 | 13 | 225 | 0.0 | 0.0 | 0.00 | 0.00 | 0.00 | 88 | 1025.1 |
| 20260509160525 | 13 | 225 | 0.0 | 0.0 | 0.00 | 0.00 | 0.00 | 88 | 1025.1 |
| 20260509160025 | 13 | 225 | 0.0 | 0.0 | 0.00 | 0.00 | 0.00 | 88 | 1025.1 |
| 20260509155521 | 13 | 225 | 0.0 | 0.0 | 0.00 | 0.00 | 0.00 | 87 | 1025.1 |
| 20260509155019 | 13 | 225 | 0.0 | 3.2 | 0.00 | 0.00 | 0.00 | 87 | 1025.1 |
| 20260509154520 | 13 | 225 | 0.0 | 3.2 | 0.00 | 0.00 | 0.00 | 87 | 1025.1 |
| 20260509154020 | 13 | 225 | 0.0 | 3.2 | 0.00 | 0.00 | 0.00 | 87 | 1025.1 |
| 20260509153519 | 13 | 225 | 0.0 | 1.6 | 0.00 | 0.00 | 0.00 | 87 | 1025.1 |
| 20260509153033 | 13 | 225 | 0.0 | 1.6 | 0.00 | 0.00 | 0.00 | 87 | 1025.1 |
| 20260509152519 | 13 | 225 | 0.0 | 1.6 | 0.00 | 0.00 | 0.00 | 87 | 1025.1 |
| 20260509152019 | 13 | 225 | 0.0 | 1.6 | 0.00 | 0.00 | 0.00 | 86 | 1025.1 |
| 20260509151519 | 13 | 225 | 0.0 | 1.6 | 0.00 | 0.00 | 0.00 | 86 | 1025.1 |
| 20260509151021 | 13 | 225 | 0.0 | 3.2 | 0.00 | 0.00 | 0.00 | 87 | 1025.1 |
| 20260509150523 | 13 | 225 | 0.0 | 3.2 | 0.00 | 0.00 | 0.00 | 87 | 1025.1 |
| 20260509150027 | 13 | 225 | 0.0 | 1.6 | 0.00 | 0.00 | 0.00 | 87 | 1025.1 |
| 20260509145520 | 13 | 225 | 0.0 | 1.6 | 0.00 | 0.00 | 0.00 | 86 | 1025.1 |
| 20260509145018 | 13 | 225 | 0.0 | 3.2 | 0.00 | 0.00 | 0.00 | 86 | 1025.1 |
| 20260509144517 | 13 | 225 | 0.0 | 3.2 | 0.00 | 0.00 | 0.00 | 86 | 1025.1 |
| 20260509144016 | 13 | 225 | 0.0 | 3.2 | 0.00 | 0.00 | 0.00 | 86 | 1025.1 |
| 20260509143516 | 13 | 225 | 0.0 | 3.2 | 0.00 | 0.00 | 0.00 | 85 | 1025.1 |
| 20260509143015 | 13 | 225 | 1.6 | 3.2 | 0.00 | 0.00 | 0.00 | 85 | 1025.1 |
| 20260509142514 | 13 | 225 | 0.0 | 3.2 | 0.00 | 0.00 | 0.00 | 85 | 1025.2 |
| 20260509142014 | 13 | 225 | 0.0 | 3.2 | 0.00 | 0.00 | 0.00 | 85 | 1025.1 |
| 20260509141514 | 13 | 225 | 0.0 | 3.2 | 0.00 | 0.00 | 0.00 | 85 | 1025.1 |
| 20260509141013 | 13 | 225 | 0.0 | 3.2 | 0.00 | 0.00 | 0.00 | 85 | 1025.1 |
| 20260509140512 | 13 | 225 | 1.6 | 3.2 | 0.00 | 0.00 | 0.00 | 85 | 1025.0 |
| 20260509140011 | 13 | 225 | 0.0 | 0.0 | 0.00 | 0.00 | 0.00 | 85 | 1025.0 |
| 20260509135511 | 13 | 225 | 0.0 | 0.0 | 0.00 | 0.00 | 0.00 | 85 | 1025.1 |
| 20260509135014 | 13 | 225 | 0.0 | 0.0 | 0.00 | 0.00 | 0.00 | 85 | 1025.1 |
| 20260509134510 | 13 | 225 | 0.0 | 1.6 | 0.00 | 0.00 | 0.00 | 85 | 1025.1 |
| 20260509134010 | 13 | 225 | 0.0 | 3.2 | 0.00 | 0.00 | 0.00 | 85 | 1025.2 |
| 20260509133510 | 13 | 225 | 0.0 | 3.2 | 0.00 | 0.00 | 0.00 | 86 | 1025.2 |
| 20260509133010 | 13 | 225 | 0.0 | 3.2 | 0.00 | 0.00 | 0.00 | 86 | 1025.2 |
| 20260509132510 | 13 | 225 | 0.0 | 1.6 | 0.00 | 0.00 | 0.00 | 86 | 1025.2 |
| 20260509132010 | 13 | 225 | 0.0 | 3.2 | 0.00 | 0.00 | 0.00 | 86 | 1025.2 |
| 20260509131509 | 13 | 225 | 0.0 | 3.2 | 0.00 | 0.00 | 0.00 | 87 | 1025.3 |
| 20260509131010 | 13 | 217 | 0.0 | 3.2 | 0.00 | 0.00 | 0.00 | 87 | 1025.3 |
| 20260509130509 | 13 | 217 | 0.0 | 1.6 | 0.00 | 0.00 | 0.00 | 88 | 1025.3 |
| 20260509130010 | 13 | 217 | 0.0 | 0.0 | 0.00 | 0.00 | 0.00 | 87 | 1025.2 |
| 20260509125516 | 13 | 217 | 0.0 | 0.0 | 0.00 | 0.00 | 0.00 | 87 | 1025.2 |
| 20260509125008 | 13 | 217 | 0.0 | 0.0 | 0.00 | 0.00 | 0.00 | 87 | 1025.3 |
| 20260509124508 | 13 | 217 | 0.0 | 0.0 | 0.00 | 0.00 | 0.00 | 87 | 1025.2 |
| 20260509124009 | 13 | 217 | 0.0 | 0.0 | 0.00 | 0.00 | 0.00 | 87 | 1025.3 |
| 20260509123509 | 13 | 217 | 0.0 | 0.0 | 0.00 | 0.00 | 0.00 | 87 | 1025.3 |
| 20260509123008 | 13 | 217 | 0.0 | 0.0 | 0.00 | 0.00 | 0.00 | 87 | 1025.3 |
| 20260509122507 | 13 | 217 | 0.0 | 0.0 | 0.00 | 0.00 | 0.00 | 86 | 1025.3 |
| 20260509122008 | 13 | 217 | 0.0 | 1.6 | 0.00 | 0.00 | 0.00 | 85 | 1025.3 |
| 20260509121509 | 14 | 217 | 0.0 | 1.6 | 0.00 | 0.00 | 0.00 | 85 | 1025.3 |
| 20260509121006 | 14 | 217 | 0.0 | 0.0 | 0.00 | 0.00 | 0.00 | 84 | 1025.4 |
| 20260509120506 | 14 | 217 | 0.0 | 1.6 | 0.00 | 0.00 | 0.00 | 84 | 1025.4 |
| 20260509120005 | 14 | 217 | 0.0 | 3.2 | 0.00 | 0.00 | 0.00 | 84 | 1025.4 |
| 20260509115505 | 14 | 217 | 0.0 | 1.6 | 0.00 | 0.00 | 0.00 | 84 | 1025.4 |
| 20260509115005 | 14 | 225 | 0.0 | 1.6 | 0.00 | 0.00 | 0.00 | 84 | 1025.4 |
| 20260509114509 | 14 | 225 | 0.0 | 1.6 | 0.00 | 0.00 | 0.00 | 84 | 1025.4 |
| 20260509114003 | 14 | 226 | 0.0 | 1.6 | 0.00 | 0.00 | 0.00 | 84 | 1025.4 |
| 20260509113504 | 14 | 226 | 0.0 | 1.6 | 0.00 | 0.00 | 0.00 | 84 | 1025.3 |
| 20260509113003 | 14 | 226 | 0.0 | 3.2 | 0.00 | 0.00 | 0.00 | 84 | 1025.4 |
| 20260509112503 | 14 | 226 | 0.0 | 3.2 | 0.00 | 0.00 | 0.00 | 84 | 1025.3 |
| 20260509112002 | 14 | 226 | 0.0 | 1.6 | 0.00 | 0.00 | 0.00 | 84 | 1025.3 |
| 20260509111502 | 14 | 226 | 0.0 | 3.2 | 0.00 | 0.00 | 0.00 | 84 | 1025.4 |
| 20260509111001 | 14 | 226 | 0.0 | 4.8 | 0.00 | 0.00 | 0.00 | 84 | 1025.4 |
| 20260509110601 | 14 | 226 | 0.0 | 4.8 | 0.00 | 0.00 | 0.00 | 84 | 1025.3 |
| 20260509110059 | 14 | 240 | 0.0 | 3.2 | 0.00 | 0.00 | 0.00 | 84 | 1025.2 |
| 20260509105559 | 14 | 244 | 0.0 | 0.0 | 0.00 | 0.00 | 0.00 | 84 | 1025.2 |
| 20260509105058 | 14 | 244 | 0.0 | 4.8 | 0.00 | 0.00 | 0.00 | 84 | 1025.2 |
| 20260509104558 | 15 | 244 | 0.0 | 4.8 | 0.00 | 0.00 | 0.00 | 84 | 1025.2 |
| 20260509104057 | 15 | 244 | 1.6 | 4.8 | 0.00 | 0.00 | 0.00 | 84 | 1025.2 |
| 20260509103558 | 15 | 208 | 1.6 | 3.2 | 0.00 | 0.00 | 0.00 | 84 | 1025.2 |
| 20260509103103 | 15 | 206 | 0.0 | 3.2 | 0.00 | 0.00 | 0.00 | 84 | 1025.2 |
| 20260509102556 | 15 | 206 | 0.0 | 3.2 | 0.00 | 0.00 | 0.00 | 84 | 1025.1 |
| 20260509102055 | 15 | 206 | 0.0 | 3.2 | 0.00 | 0.00 | 0.00 | 83 | 1025.1 |
| 20260509101554 | 15 | 206 | 1.6 | 3.2 | 0.00 | 0.00 | 0.00 | 83 | 1025.1 |
| 20260509101053 | 15 | 206 | 0.0 | 3.2 | 0.00 | 0.00 | 0.00 | 82 | 1025.0 |
| 20260509100552 | 15 | 206 | 0.0 | 3.2 | 0.00 | 0.00 | 0.00 | 82 | 1024.9 |
| 20260509100058 | 15 | 80 | 0.0 | 0.0 | 0.00 | 0.00 | 0.00 | 81 | 1024.9 |
| 20260509095551 | 15 | 80 | 0.0 | 0.0 | 0.00 | 0.00 | 0.00 | 80 | 1024.8 |
| 20260509095051 | 15 | 80 | 0.0 | 1.6 | 0.00 | 0.00 | 0.00 | 80 | 1024.8 |
| 20260509094550 | 15 | 80 | 0.0 | 1.6 | 0.00 | 0.00 | 0.00 | 79 | 1024.9 |
| 20260509094050 | 15 | 80 | 0.0 | 1.6 | 0.00 | 0.00 | 0.00 | 79 | 1024.9 |
| 20260509093549 | 15 | 80 | 0.0 | 1.6 | 0.00 | 0.00 | 0.00 | 79 | 1024.9 |
| 20260509093050 | 15 | 80 | 0.0 | 0.0 | 0.00 | 0.00 | 0.00 | 79 | 1024.9 |
| 20260509092552 | 15 | 80 | 0.0 | 1.6 | 0.00 | 0.00 | 0.00 | 78 | 1024.8 |
| 20260509092049 | 15 | 80 | 0.0 | 3.2 | 0.00 | 0.00 | 0.00 | 78 | 1024.8 |
| 20260509091548 | 15 | 80 | 0.0 | 3.2 | 0.00 | 0.00 | 0.00 | 78 | 1024.7 |
| 20260509091051 | 15 | 80 | 0.0 | 3.2 | 0.00 | 0.00 | 0.00 | 78 | 1024.6 |
| 20260509090548 | 15 | 80 | 0.0 | 0.0 | 0.00 | 0.00 | 0.00 | 78 | 1024.6 |
| 20260509090054 | 15 | 80 | 0.0 | 0.0 | 0.00 | 0.00 | 0.00 | 78 | 1024.6 |